User: anonymous   Login
Location: Unspecified
(0.0000°N, 0.0000°E)
Time: 00:23:39
(UTC+00:00)
Language:

XW-2C - Orbit

View from above orbital plane
View from above orbital plane
View from above satellite
View from above satellite

Ground track
Ground track

The orbit data is extracted from the following two-line orbital elements,

1 40906U 15049H   19082.71655345  .00000484  00000-0  28957-4 0  9995
2 40906  97.4667  86.2456 0016248 135.6524 311.7481 15.15550738193826
Epoch (UTC): 23 March 2019 17:11:50
Eccentricity: 0.0016248
inclination: 97.4667°
perigee height: 508 km
apogee height: 530 km
right ascension of ascending node: 86.2456°
argument of perigee: 135.6524°
revolutions per day: 15.15550738
mean anomaly at epoch: 311.7481°
orbit number at epoch: 19382

The dashed part of the orbit path shows where the satellite is in the earth's shadow,  

DLR